Погода в Дружбе

Россия / Республика Тыва     51°00′24″N   90°13′11″E
темп.,
°C
ветер,
м/с
пор.,
м/с
влажн.,
%
обл.,
%
осадки,
мм/ч
давл.,
гПа
погр.,
м
24 мая, вт
вт2401:00+14ссв226070 0.0 101947
04:00+12ю116957 0.0 102011
07:00+14св126472 0.1 1020356
10:00+17св125557 0.0 10191199
13:00+21с124311 0.0 10161528
16:00+23св333911 0.0 10141576
19:00+22ююз1144100 1.2 1014741
22:00+17ююз2268100 0.8 101626
25 мая, ср
ср2501:00+16ююз1167100 1.0 101612
04:00+15з1171100 0.0 101611
07:00+17всв116455 0.0 1016153
10:00+20всв214721 0.0 1014753
13:00+25всв32355 0.0 10111090
16:00+28всв332872 0.0 10081364
19:00+27юв3230100 0.1 10071300
22:00+16вюв3380100 4.8 1016450
26 мая, чт
чт2601:00+16вюв1179100 5.2 101358
04:00+15всв228359 0.3 101255
07:00+16ююз1175100 0.3 1012158
10:00+20всв215324 0.0 1010703
13:00+25всв323752 0.0 10071343
16:00+22в555610 0.6 1008513
19:00+23ссв214045 0.7 1007777
22:00+19ююв0058100 0.2 100812
27 мая, пт
пт2701:00+17зсз1161100 0.4 100712
04:00+15с006991 0.4 100711
07:00+17з0064100 0.6 1007114
10:00+20всв214890 0.1 1005718
13:00+25всв333145 0.1 10021753
16:00+25св6628100 0.1 10012960
19:00+17в135571 1.5 1006724
22:00+14зюз117166 0.7 100820
28 мая, сб
сб2801:00+14юз11700 0.7 100811
04:00+12ю00690 0.0 100910
07:00+15юз11592 0.0 1010172
10:00+19всв32451 0.0 10091277
13:00+22в3332100 0.0 10081901
16:00+25всв442596 0.0 10061882
19:00+24всв43275 0.0 1006684
22:00+18ю004116 0.0 100811